Regional Weather Roundup
Issued by NWS Charleston, SC

Current Version | Previous Version | Text Only | Print | Product List | Glossary Off
Versions: 1 2 3 4 5 6 7 8 9 10 11 12 13 14 15 16 17 18 19 20 21 22 23 24 25 26 27 28 29 30 31 32 33 34 35 36 37 38 39 40 41 42 43 44 45 46 47 48 49 50

000
ASUS42 KCHS 220725
RWRCHS

REGIONAL WEATHER ROUNDUP
NATIONAL WEATHER SERVICE CHARLESTON SC
300 AM EDT FRI AUG 22 2014

NOTE: "FAIR" INDICATES FEW OR NO CLOUDS BELOW 12,000 FEET WITH NO
SIGNIFICANT WEATHER AND/OR OBSTRUCTIONS TO VISIBILITY.

NOT ALL STATIONS ARE QUALITY CONTROLLED BY THE NATIONAL
WEATHER SERVICE. USE DATA WITH CAUTION...ESPECIALLY
DEWPOINT OBSERVATIONS.

SCZ027-030-031-034>040-042>050-220800-
...SOUTH CAROLINA...

CITY           SKY/WX    TMP DP  RH WIND       PRES   REMARKS
N CHARLESTON   PTCLDY    80  77  90 S3        30.03F
WATERFRONT PRK   N/A     82 N/A N/A SW5         N/A
FORT JOHNSON   NOT AVBL
MOUNT PLEASANT FAIR      81  79  94 CALM      30.03S FOG
JOHNS ISLAND   SUNNY     81  81 100 CALM      30.03F HX  91
PINOPOLIS        N/A     82  73  74 SW3       29.96F
MONCKS CORNER    N/A     77  77 100 CALM      30.03S
SUMMERVILLE    NOT AVBL
BEAUFORT MCAS  CLEAR     81  78  91 CALM      30.03F
BEAUFORT ARPT  FAIR      79  79 100 CALM      30.03S
HILTON HEAD IS CLEAR     79  79 100 CALM      30.04S
GEORGETOWN     NOT AVBL
WALTERBORO     MOSUNNY   77  77 100 CALM      30.04F
ORANGEBURG     CLEAR     75  71  87 CALM      30.05S
BARNWELL       FAIR      73  70  88 CALM      30.05S
AIKEN          FAIR      73  70  88 CALM      30.09S
MANNING        FAIR      73 N/A N/A CALM      30.03S
KINGSTREE      NOT AVBL
COLUMBIA       CLEAR     77  70  79 W5        30.04F
SUMTER         CLEAR     78  70  78 CALM      30.02F
FLORENCE       CLEAR     75  70  84 CALM      30.03S
MYRTLE BEACH   PTCLDY    79  75  89 W6        30.03S
N MYRTLE BEACH PTCLDY    76  74  93 CALM      30.02S

$$

GAZ063-065-086>088-099>101-113>116-118-119-134-136>141-150-220800-
...GEORGIA...

CITY           SKY/WX    TMP DP  RH WIND       PRES   REMARKS
SAVANNAH ARPT  NOT AVBL
HUNTER AAF     CLEAR     79  77  95 SW2       30.02S
FORT STEWART   CLEAR     75  72  88 CALM      30.02F
STATESBORO     NOT AVBL
SYLVANIA       SUNNY     74  73  98 CALM      30.05F
CLAXTON        FAIR     N/A N/A N/A CALM      30.05S
THOMSON        CLEAR     73  73 100 CALM      30.11S
AUGUSTA-BUSH   CLEAR     72  71  97 CALM      30.04S
AUGUSTA-DANIEL CLEAR     82  67  60 CALM      30.06F
SWAINSBORO     FAIR      75  75 100 CALM      30.06S
VIDALIA          N/A     77  72  83 CALM      30.06S
ALMA           CLEAR     75  71  87 CALM      30.06F
WAYCROSS       PTCLDY    79  74  86 SW3       30.05F
JESUP            N/A     77  73  88 CALM      30.04F
BRUNSWICK      CLEAR     79  73  83 W3        30.04S
SAINT SIMONS   CLEAR     78  74  87 SW8       30.04S

$$

SCZ027-028-034-036>038-045-046-048>050-GAZ119-141-220800-
...LAKE AND SUPPLEMENTAL COASTAL OBSERVATIONS...

STATION/POSITION TIME  TEMP    WIND        PRES    WAVE   SWELL
                       AIR SEA DIR/SP/G            HT/PER HT/PER/DIR
                 (UTC) (F)     (DEG/KT/KT) (MB)    (FT/S) (FT/S/D)
UPR LAKE MARION  NOT AVBL
WINYAH BAY       0700   81     220/  2     1016.0S
LAKE MURRAY      0700   82     250/  2/  4 1016.6F
ACE BASIN NERRS  0700   79        CALM     1017.0S
FORT PULASKI     0700   82     210/  3/  6 1017.2S
SAPELO ISLAND    0700   81     270/  3     1017.0F

$$

ANZ835-935-AMZ111-154-330-350-352-354-374-450-454-472-220800-
...C-MAN AND BUOY OBSERVATIONS...

STATION/POSITION TIME  TEMP    WIND        PRES    WAVE   SWELL
                       AIR SEA DIR/SP/G            HT/PER HT/PER/DIR
                 (UTC) (F)     (DEG/KT/KT) (MB)    (FT/S) (FT/S/D)
FOLLY BEACH CMAN 0700   83     240/  4/  4 1017.4F
BUOY 41004       0700   84 84  230/  8/ 10 1016.4F   2/ 8   2/ 8
BUOY 41008       0700   84 85  240/ 10/ 10 1016.9F   2/ 3
5E ST. MARYS GA  0700      83                N/A     2/ 3
FRYING PAN BUOY  NOT AVBL
BUOY 41025       0700   81     240/ 10/ 12 1015.1F   2/ 8   2/ 40/ 8
CAPE LOOKOUT NC  0700   81     260/  9/ 11 1015.8F
BUOY 41002       0609   81 82  240/ 12/ 14 1017.8F   2/ 5   2/110/ 7
BUOY 41010       0700   84 86  190/ 10/ 12 1018.0F   2/ 7   2/130/ 7
BUOY 41012       NOT AVBL
ST AUGUSTINE FL  0700   77     250/  4/  5 1018.6F
CAPERS NEARSHORE 0600   85     230/  8/ 12   N/A
FRIPP NEARSHORE  NOT AVBL


$$


USA.gov is the U.S. government's official web portal to all federal, state and local government web resources and services.